Flag for Norway Weather past 2 weeks in Kongsvinger, Norway

Now
57 °F

Passing clouds.


Feels Like: 57 °F
Forecast: 42 / 65 °F
Wind: 3 mph from Southeast

Location: Oslo Gardermoen Airport


UV Index: 0 (Low)

Visibility: N/A


Pressure: 30.15 "Hg

Humidity: 51%

Dew point: 39 °F

Location of KongsvingerLocation

Historic Weather in Kongsvinger

°F

Kongsvinger temperature yesterday

Maximum temperature yesterday: 59 °F (at 4:20 PM)
Minimum temperature yesterday: 28 °F (at 3:50 AM)
Average temperature yesterday: 45 °F

Past Weeks' High & Low Weather Summary

 TemperatureHumidityPressure
High61 °F (Apr 20, 2:50 PM)100% (Apr 5, 10:50 PM)30.30 "Hg (Apr 5, 10:50 PM)
Low27 °F (Apr 16, 6:20 AM)25% (Apr 15, 4:20 PM)29.30 "Hg (Apr 13, 4:20 AM)
Average41 °F72%29.83 "Hg
* Reported Apr 5 8:20 PM — Apr 20 8:20 PM, Kongsvinger, Weather by CustomWeather, © 2014

Note: Actual official high and low records may vary slightly from our data, if they occured in-between our weather recording intervals... More about our weather records

Advertising

Historic Weather Conditions — Data for Previous 24 hours

 ConditionsComfort  
Time TempWeatherWind HumidityBarometerVisibility
8:20 PM
Apr 20
59 °FPassing clouds.5 mph48%30.15 "HgN/A
7:50 PM59 °FSunny.6 mph48%30.12 "Hg10 mi
7:20 PM59 °FPassing clouds.7 mph48%30.12 "HgN/A
6:50 PM61 °FPassing clouds.3 mph45%30.12 "HgN/A
6:20 PM59 °FBroken clouds.5 mph48%30.15 "HgN/A
5:50 PM59 °FPartly sunny.3 mph45%30.15 "HgN/A
5:20 PM59 °FPartly sunny.5 mph48%30.15 "HgN/A
4:50 PM59 °FPartly sunny.7 mph45%30.15 "HgN/A
4:20 PM59 °FPassing clouds.6 mph45%30.15 "HgN/A
3:50 PM61 °FPartly sunny.7 mph42%30.18 "HgN/A
3:20 PM61 °FPartly sunny.9 mph42%30.18 "HgN/A
2:50 PM61 °FPartly sunny.9 mph45%30.18 "HgN/A
2:20 PM59 °FScattered clouds.7 mph45%30.18 "HgN/A
1:50 PM59 °FScattered clouds.8 mph48%30.21 "HgN/A
1:20 PM59 °FPassing clouds.6 mph45%30.21 "HgN/A
12:50 PM57 °FPassing clouds.6 mph41%30.21 "HgN/A
12:20 PM57 °FPassing clouds.6 mph44%30.21 "HgN/A
11:50 AM54 °FPassing clouds.2 mph54%30.21 "HgN/A
11:20 AM54 °FSunny.2 mph51%30.24 "Hg10 mi
10:50 AM52 °FSunny.2 mph54%30.24 "Hg10 mi
10:20 AM48 °FSunny.1 mph62%30.24 "Hg10 mi
9:50 AM48 °FSunny.2 mph62%30.24 "Hg10 mi
9:20 AM45 °FPassing clouds.3 mph66%30.24 "HgN/A
8:50 AM43 °FPassing clouds.3 mph71%30.24 "HgN/A
8:20 AM39 °FSunny.3 mph81%30.24 "Hg10 mi
7:50 AM37 °FSunny.5 mph87%30.24 "Hg10 mi
7:20 AM34 °FSunny.3 mph93%30.24 "Hg10 mi
6:50 AM32 °FPassing clouds.3 mph93%30.24 "HgN/A
6:20 AM30 °FClear.3 mph93%30.24 "Hg10 mi
5:50 AM28 °FClear.3 mph93%30.24 "Hg10 mi
5:20 AM30 °FClear.1 mph93%30.21 "Hg10 mi
4:50 AM32 °FClear.3 mph93%30.24 "Hg10 mi
4:20 AM32 °FClear.3 mph93%30.21 "Hg10 mi
3:50 AM32 °FClear.2 mph93%30.21 "Hg10 mi
3:20 AM32 °FClear.3 mph93%30.21 "Hg10 mi
2:50 AM32 °FClear.3 mph87%30.21 "Hg10 mi
2:20 AM34 °FClear.3 mph87%30.21 "Hg10 mi
1:50 AM36 °FClear.3 mph81%30.21 "Hg10 mi
1:20 AM36 °FClear.3 mph81%30.21 "Hg10 mi
12:50 AM36 °FClear.5 mph81%30.21 "Hg10 mi
12:20 AM36 °FClear.2 mph81%30.21 "Hg10 mi
10:20 PM
Apr 19
46 °FClear.No wind62%30.21 "Hg10 mi
9:50 PM48 °FClear.1 mph58%30.21 "Hg10 mi
9:20 PM50 °FSunny.1 mph54%30.21 "Hg10 mi
Weather by CustomWeather, © 2014

See weather overview